Year,Month,Day,Hour,Minute,Value (Times are PST for temperature in C)
2009,09,24,00,00,16.30
2009,09,24,00,01,16.30
2009,09,24,00,02,16.20
2009,09,24,00,03,16.20
2009,09,24,00,04,16.20
2009,09,24,00,05,16.10
2009,09,24,00,06,16.10
2009,09,24,00,07,16.10
2009,09,24,00,08,16.00
2009,09,24,00,09,16.00
2009,09,24,00,10,15.90
2009,09,24,00,11,15.90
2009,09,24,00,12,15.80
2009,09,24,00,13,15.80
2009,09,24,00,14,15.70
2009,09,24,00,15,15.70
2009,09,24,00,16,15.60
2009,09,24,00,17,15.60
2009,09,24,00,18,15.60
2009,09,24,00,19,15.50
2009,09,24,00,20,15.50
2009,09,24,00,21,15.40
2009,09,24,00,22,15.30
2009,09,24,00,23,15.30
2009,09,24,00,24,15.30
2009,09,24,00,25,15.20
2009,09,24,00,26,15.20
2009,09,24,00,27,15.10
2009,09,24,00,28,15.10
2009,09,24,00,29,15.00
2009,09,24,00,30,15.00
2009,09,24,00,31,15.00
2009,09,24,00,32,15.00
2009,09,24,00,33,15.00
2009,09,24,00,34,15.00
2009,09,24,00,35,15.00
2009,09,24,00,36,15.00
2009,09,24,00,37,15.00
2009,09,24,00,38,15.00
2009,09,24,00,39,15.00
2009,09,24,00,40,15.00
2009,09,24,00,41,15.00
2009,09,24,00,42,14.90
2009,09,24,00,43,14.90
2009,09,24,00,44,14.80
2009,09,24,00,45,14.80
2009,09,24,00,46,14.70
2009,09,24,00,47,14.70
2009,09,24,00,48,14.70
2009,09,24,00,49,14.70
2009,09,24,00,50,14.70
2009,09,24,00,51,14.70
2009,09,24,00,52,14.70
2009,09,24,00,53,14.70
2009,09,24,00,54,14.60
2009,09,24,00,55,14.60
2009,09,24,00,56,14.60
2009,09,24,00,57,14.60
2009,09,24,00,58,14.50
2009,09,24,00,59,14.50
2009,09,24,01,00,14.40
2009,09,24,01,01,14.40
2009,09,24,01,02,14.40
2009,09,24,01,03,14.30
2009,09,24,01,04,14.30
2009,09,24,01,05,14.30
2009,09,24,01,06,14.30
2009,09,24,01,07,14.20
2009,09,24,01,08,14.20
2009,09,24,01,09,14.20
2009,09,24,01,10,14.20
2009,09,24,01,11,14.20
2009,09,24,01,12,14.10
2009,09,24,01,13,14.10
2009,09,24,01,14,14.10
2009,09,24,01,15,14.10
2009,09,24,01,16,14.00
2009,09,24,01,17,14.00
2009,09,24,01,18,13.90
2009,09,24,01,19,13.90
2009,09,24,01,20,13.90
2009,09,24,01,21,13.80
2009,09,24,01,22,13.80
2009,09,24,01,23,13.80
2009,09,24,01,24,13.80
2009,09,24,01,25,13.70
2009,09,24,01,26,13.70
2009,09,24,01,27,13.70
2009,09,24,01,28,13.60
2009,09,24,01,29,13.60
2009,09,24,01,30,13.60
2009,09,24,01,31,13.60
2009,09,24,01,32,13.50
2009,09,24,01,33,13.50
2009,09,24,01,34,13.40
2009,09,24,01,35,13.40
2009,09,24,01,36,13.40
2009,09,24,01,37,13.30
2009,09,24,01,38,13.30
2009,09,24,01,39,13.30
2009,09,24,01,40,13.20
2009,09,24,01,41,13.20
2009,09,24,01,42,13.20
2009,09,24,01,43,13.10
2009,09,24,01,44,13.10
2009,09,24,01,45,13.10
2009,09,24,01,46,13.10
2009,09,24,01,47,13.00
2009,09,24,01,48,13.00
2009,09,24,01,49,13.00
2009,09,24,01,50,12.90
2009,09,24,01,51,12.90
2009,09,24,01,52,12.90
2009,09,24,01,53,12.80
2009,09,24,01,54,12.80
2009,09,24,01,55,12.80
2009,09,24,01,56,12.70
2009,09,24,01,57,12.70
2009,09,24,01,58,12.70
2009,09,24,01,59,12.70
2009,09,24,02,00,12.60
2009,09,24,02,01,12.60
2009,09,24,02,02,12.60
2009,09,24,02,03,12.60
2009,09,24,02,04,12.50
2009,09,24,02,05,12.50
2009,09,24,02,06,12.50
2009,09,24,02,07,12.40
2009,09,24,02,08,12.40
2009,09,24,02,09,12.40
2009,09,24,02,10,12.40
2009,09,24,02,11,12.30
2009,09,24,02,12,12.30
2009,09,24,02,13,12.30
2009,09,24,02,14,12.30
2009,09,24,02,15,12.20
2009,09,24,02,16,12.20
2009,09,24,02,17,12.20
2009,09,24,02,18,12.20
2009,09,24,02,19,12.20
2009,09,24,02,20,12.10
2009,09,24,02,21,12.10
2009,09,24,02,22,12.10
2009,09,24,02,23,12.10
2009,09,24,02,24,12.00
2009,09,24,02,25,12.00
2009,09,24,02,26,11.90
2009,09,24,02,27,11.90
2009,09,24,02,28,11.90
2009,09,24,02,29,11.90
2009,09,24,02,30,11.80
2009,09,24,02,31,11.80
2009,09,24,02,32,11.80
2009,09,24,02,33,11.80
2009,09,24,02,34,11.80
2009,09,24,02,35,11.80
2009,09,24,02,36,11.80
2009,09,24,02,37,11.70
2009,09,24,02,38,11.70
2009,09,24,02,39,11.70
2009,09,24,02,40,11.70
2009,09,24,02,41,11.70
2009,09,24,02,42,11.70
2009,09,24,02,43,11.70
2009,09,24,02,44,11.70
2009,09,24,02,45,11.70
2009,09,24,02,46,11.70
2009,09,24,02,47,11.60
2009,09,24,02,48,11.60
2009,09,24,02,49,11.60
2009,09,24,02,50,11.60
2009,09,24,02,51,11.60
2009,09,24,02,52,11.60
2009,09,24,02,53,11.60
2009,09,24,02,54,11.60
2009,09,24,02,55,11.60
2009,09,24,02,56,11.70
2009,09,24,02,57,11.70
2009,09,24,02,58,11.70
2009,09,24,02,59,11.70
2009,09,24,03,00,11.70
2009,09,24,03,01,11.70
2009,09,24,03,02,11.70
2009,09,24,03,03,11.70
2009,09,24,03,04,11.80
2009,09,24,03,05,11.80
2009,09,24,03,06,11.80
2009,09,24,03,07,11.80
2009,09,24,03,08,11.80
2009,09,24,03,09,11.90
2009,09,24,03,10,11.90
2009,09,24,03,11,11.90
2009,09,24,03,12,11.90
2009,09,24,03,13,11.90
2009,09,24,03,14,11.90
2009,09,24,03,15,11.90
2009,09,24,03,16,11.90
2009,09,24,03,17,11.90
2009,09,24,03,18,11.90
2009,09,24,03,19,11.90
2009,09,24,03,20,11.90
2009,09,24,03,21,11.90
2009,09,24,03,22,12.00
2009,09,24,03,23,12.00
2009,09,24,03,24,12.00
2009,09,24,03,25,12.00
2009,09,24,03,26,12.00
2009,09,24,03,27,12.00
2009,09,24,03,28,12.00
2009,09,24,03,29,12.00
2009,09,24,03,30,12.00
2009,09,24,03,31,12.10
2009,09,24,03,32,12.10
2009,09,24,03,33,12.10
2009,09,24,03,34,12.10
2009,09,24,03,35,12.10
2009,09,24,03,36,12.10
2009,09,24,04,02,12.20
2009,09,24,04,03,12.30
2009,09,24,04,04,12.20
2009,09,24,04,05,12.20
2009,09,24,04,06,12.20
2009,09,24,04,07,12.20
2009,09,24,04,08,12.20
2009,09,24,04,09,12.20
2009,09,24,04,10,12.20
2009,09,24,04,11,12.30
2009,09,24,04,12,12.30
2009,09,24,04,13,12.30
2009,09,24,04,14,12.30
2009,09,24,04,15,12.20
2009,09,24,04,16,12.20
2009,09,24,04,17,12.20
2009,09,24,04,18,12.20
2009,09,24,04,19,12.20
2009,09,24,04,20,12.20
2009,09,24,04,21,12.20
2009,09,24,04,22,12.20
2009,09,24,04,23,12.20
2009,09,24,04,24,12.20
2009,09,24,04,25,12.10
2009,09,24,04,26,12.10
2009,09,24,04,27,12.10
2009,09,24,04,28,12.10
2009,09,24,04,29,12.10
2009,09,24,04,30,12.00
2009,09,24,04,31,12.00
2009,09,24,04,32,12.00
2009,09,24,04,33,12.00
2009,09,24,04,34,11.90
2009,09,24,04,35,11.90
2009,09,24,04,36,11.90
2009,09,24,04,37,11.90
2009,09,24,04,38,11.90
2009,09,24,04,39,11.90
2009,09,24,04,40,11.80
2009,09,24,04,41,11.80
2009,09,24,04,42,11.80
2009,09,24,04,43,11.80
2009,09,24,04,44,11.80
2009,09,24,04,45,11.80
2009,09,24,04,46,11.80
2009,09,24,04,47,11.70
2009,09,24,04,48,11.70
2009,09,24,04,49,11.70
2009,09,24,04,50,11.70
2009,09,24,04,51,11.70
2009,09,24,04,52,11.70
2009,09,24,04,53,11.70
2009,09,24,04,54,11.60
2009,09,24,04,55,11.60
2009,09,24,04,56,11.60
2009,09,24,04,57,11.60
2009,09,24,04,58,11.60
2009,09,24,04,59,11.50
2009,09,24,05,00,11.50
2009,09,24,05,01,11.40
2009,09,24,05,02,11.40
2009,09,24,05,03,11.40
2009,09,24,05,04,11.40
2009,09,24,05,05,11.30
2009,09,24,05,06,11.30
2009,09,24,05,07,11.30
2009,09,24,05,08,11.30
2009,09,24,05,09,11.30
2009,09,24,05,10,11.20
2009,09,24,05,11,11.20
2009,09,24,05,12,11.20
2009,09,24,05,13,11.10
2009,09,24,05,14,11.10
2009,09,24,05,15,11.10
2009,09,24,05,16,11.10
2009,09,24,05,17,11.00
2009,09,24,05,18,11.00
2009,09,24,05,19,11.00
2009,09,24,05,20,10.90
2009,09,24,05,21,10.90
2009,09,24,05,22,10.90
2009,09,24,05,23,10.80
2009,09,24,05,24,10.80
2009,09,24,05,25,10.80
2009,09,24,05,26,10.80
2009,09,24,05,27,10.80
2009,09,24,05,28,10.80
2009,09,24,05,29,10.70
2009,09,24,05,30,10.70
2009,09,24,05,31,10.70
2009,09,24,05,32,10.70
2009,09,24,05,33,10.70
2009,09,24,05,34,10.60
2009,09,24,05,35,10.60
2009,09,24,05,36,10.60
2009,09,24,05,37,10.60
2009,09,24,05,38,10.60
2009,09,24,05,39,10.60
2009,09,24,05,40,10.50
2009,09,24,05,41,10.50
2009,09,24,05,42,10.50
2009,09,24,05,43,10.50
2009,09,24,05,44,10.40
2009,09,24,05,45,10.40
2009,09,24,05,46,10.40
2009,09,24,05,47,10.40
2009,09,24,05,48,10.40
2009,09,24,05,49,10.40
2009,09,24,05,50,10.30
2009,09,24,05,51,10.30
2009,09,24,05,52,10.30
2009,09,24,05,53,10.30
2009,09,24,05,54,10.30
2009,09,24,05,55,10.30
2009,09,24,05,56,10.30
2009,09,24,05,57,10.20
2009,09,24,05,58,10.20
2009,09,24,05,59,10.20
2009,09,24,06,00,10.20
2009,09,24,06,01,10.20
2009,09,24,06,02,10.20
2009,09,24,06,03,10.10
2009,09,24,06,04,10.10
2009,09,24,06,05,10.10
2009,09,24,06,06,10.10
2009,09,24,06,07,10.10
2009,09,24,06,08,10.10
2009,09,24,06,09,10.10
2009,09,24,06,10,10.00
2009,09,24,06,11,10.00
2009,09,24,06,12,10.00
2009,09,24,06,13,10.00
2009,09,24,06,14,9.90
2009,09,24,06,15,9.90
2009,09,24,06,16,9.90
2009,09,24,06,17,9.90
2009,09,24,06,18,9.90
2009,09,24,06,19,9.90
2009,09,24,06,20,9.90
2009,09,24,06,21,9.80
2009,09,24,06,22,9.80
2009,09,24,06,23,9.80
2009,09,24,06,24,9.80
2009,09,24,06,25,9.80
2009,09,24,06,26,9.80
2009,09,24,06,27,9.80
2009,09,24,06,28,9.80
2009,09,24,06,29,9.70
2009,09,24,06,30,9.70
2009,09,24,06,31,9.70
2009,09,24,06,32,9.70
2009,09,24,06,33,9.70
2009,09,24,06,34,9.70
2009,09,24,06,35,9.70
2009,09,24,06,36,9.70
2009,09,24,06,37,9.60
2009,09,24,06,38,9.60
2009,09,24,06,39,9.60
2009,09,24,06,40,9.60
2009,09,24,06,41,9.60
2009,09,24,06,42,9.60
2009,09,24,06,43,9.60
2009,09,24,06,44,9.60
2009,09,24,06,45,9.60
2009,09,24,06,46,9.60
2009,09,24,06,47,9.60
2009,09,24,06,48,9.50
2009,09,24,06,49,9.50
2009,09,24,06,50,9.50
2009,09,24,06,51,9.50
2009,09,24,06,52,9.50
2009,09,24,06,53,9.40
2009,09,24,06,54,9.40
2009,09,24,06,55,9.40
2009,09,24,06,56,9.40
2009,09,24,06,57,9.40
2009,09,24,06,58,9.40
2009,09,24,06,59,9.40
2009,09,24,07,00,9.40
2009,09,24,07,01,9.40
2009,09,24,07,02,9.40
2009,09,24,07,03,9.40
2009,09,24,07,04,9.40
2009,09,24,07,05,9.30
2009,09,24,07,06,9.30
2009,09,24,07,07,9.30
2009,09,24,07,08,9.30
2009,09,24,07,09,9.30
2009,09,24,07,10,9.30
2009,09,24,07,11,9.30
2009,09,24,07,12,9.30
2009,09,24,07,13,9.30
2009,09,24,07,14,9.30
2009,09,24,07,15,9.30
2009,09,24,07,16,9.30
2009,09,24,07,17,9.20
2009,09,24,07,18,9.20
2009,09,24,07,19,9.20
2009,09,24,07,20,9.20
2009,09,24,07,21,9.20
2009,09,24,07,22,9.20
2009,09,24,07,23,9.20
2009,09,24,07,24,9.20
2009,09,24,07,25,9.20
2009,09,24,07,26,9.20
2009,09,24,07,27,9.20
2009,09,24,07,28,9.20
2009,09,24,07,29,9.20
2009,09,24,07,30,9.20
2009,09,24,07,31,9.10
2009,09,24,07,32,9.10
2009,09,24,07,33,9.10
2009,09,24,07,34,9.10
2009,09,24,07,35,9.10
2009,09,24,07,36,9.10
2009,09,24,07,37,9.10
2009,09,24,07,38,9.10
2009,09,24,07,39,9.10
2009,09,24,07,40,9.10
2009,09,24,07,41,9.10
2009,09,24,07,42,9.10
2009,09,24,07,43,9.10
2009,09,24,07,44,9.10
2009,09,24,07,45,9.10
2009,09,24,07,46,9.10
2009,09,24,07,47,9.10
2009,09,24,07,48,9.10
2009,09,24,07,49,9.10
2009,09,24,07,50,9.10
2009,09,24,07,51,9.10
2009,09,24,07,52,9.10
2009,09,24,07,53,9.10
2009,09,24,07,54,9.10
2009,09,24,07,55,9.10
2009,09,24,07,56,9.10
2009,09,24,07,57,9.10
2009,09,24,07,58,9.20
2009,09,24,07,59,9.20
2009,09,24,08,00,9.20
2009,09,24,08,01,9.20
2009,09,24,08,02,9.20
2009,09,24,08,03,9.20
2009,09,24,08,04,9.20
2009,09,24,08,05,9.20
2009,09,24,08,06,9.20
2009,09,24,08,07,9.20
2009,09,24,08,08,9.20
2009,09,24,08,09,9.20
2009,09,24,08,10,9.20
2009,09,24,08,11,9.30
2009,09,24,08,12,9.30
2009,09,24,08,13,9.30
2009,09,24,08,14,9.30
2009,09,24,08,15,9.30
2009,09,24,08,16,9.30
2009,09,24,08,17,9.30
2009,09,24,08,18,9.30
2009,09,24,08,19,9.30
2009,09,24,08,20,9.30
2009,09,24,08,21,9.30
2009,09,24,08,22,9.40
2009,09,24,08,23,9.40
2009,09,24,08,24,9.40
2009,09,24,08,25,9.50
2009,09,24,08,26,9.60
2009,09,24,08,27,9.70
2009,09,24,08,28,9.70
2009,09,24,08,29,9.80
2009,09,24,08,30,9.80
2009,09,24,08,31,9.80
2009,09,24,08,32,9.80
2009,09,24,08,33,9.90
2009,09,24,08,34,9.90
2009,09,24,08,35,9.90
2009,09,24,08,36,9.90
2009,09,24,08,37,9.90
2009,09,24,08,38,10.00
2009,09,24,08,39,10.00
2009,09,24,08,40,10.00
2009,09,24,08,41,10.10
2009,09,24,08,42,10.10
2009,09,24,08,43,10.10
2009,09,24,08,44,10.10
2009,09,24,08,45,10.10
2009,09,24,08,46,10.10
2009,09,24,08,47,10.10
2009,09,24,08,48,10.20
2009,09,24,08,49,10.20
2009,09,24,08,50,10.20
2009,09,24,08,51,10.20
2009,09,24,08,52,10.20
2009,09,24,08,53,10.20
2009,09,24,08,54,10.30
2009,09,24,08,55,10.30
2009,09,24,08,56,10.30
2009,09,24,08,57,10.40
2009,09,24,08,58,10.40
2009,09,24,08,59,10.50
2009,09,24,09,00,10.50
2009,09,24,09,01,10.60
2009,09,24,09,02,10.60
2009,09,24,09,03,10.70
2009,09,24,09,04,10.70
2009,09,24,09,05,10.70
2009,09,24,09,06,10.80
2009,09,24,09,07,10.80
2009,09,24,09,08,10.80
2009,09,24,09,09,10.90
2009,09,24,09,10,10.90
2009,09,24,09,11,11.00
2009,09,24,09,12,11.00
2009,09,24,09,13,11.10
2009,09,24,09,14,11.10
2009,09,24,09,15,11.20
2009,09,24,09,16,11.20
2009,09,24,09,17,11.20
2009,09,24,09,18,11.30
2009,09,24,09,19,11.40
2009,09,24,09,20,11.50
2009,09,24,09,21,11.50
2009,09,24,09,22,11.60
2009,09,24,09,23,11.70
2009,09,24,09,24,11.80
2009,09,24,09,25,11.80
2009,09,24,09,26,11.90
2009,09,24,09,27,12.00
2009,09,24,09,28,12.10
2009,09,24,09,29,12.20
2009,09,24,09,30,12.30
2009,09,24,09,31,12.40
2009,09,24,09,32,12.40
2009,09,24,09,33,12.50
2009,09,24,09,34,12.60
2009,09,24,09,35,12.70
2009,09,24,09,36,12.80
2009,09,24,09,37,12.90
2009,09,24,09,38,13.00
2009,09,24,09,39,13.10
2009,09,24,09,40,13.20
2009,09,24,09,41,13.20
2009,09,24,09,42,13.40
2009,09,24,09,43,13.50
2009,09,24,09,44,13.60
2009,09,24,09,45,13.70
2009,09,24,09,46,13.80
2009,09,24,09,47,13.90
2009,09,24,09,48,14.00
2009,09,24,09,49,14.10
2009,09,24,09,50,14.20
2009,09,24,09,51,14.30
2009,09,24,09,52,14.40
2009,09,24,09,53,14.50
2009,09,24,09,54,14.60
2009,09,24,09,55,14.70
2009,09,24,09,56,14.80
2009,09,24,09,57,14.90
2009,09,24,09,58,15.00
2009,09,24,09,59,15.00
2009,09,24,10,00,15.00
2009,09,24,10,01,15.10
2009,09,24,10,02,15.20
2009,09,24,10,03,15.30
2009,09,24,10,04,15.40
2009,09,24,10,05,15.40
2009,09,24,10,06,15.50
2009,09,24,10,07,15.60
2009,09,24,10,08,15.60
2009,09,24,10,09,15.70
2009,09,24,10,10,15.70
2009,09,24,10,11,15.80
2009,09,24,10,12,15.90
2009,09,24,10,13,15.90
2009,09,24,10,14,16.00
2009,09,24,10,15,16.10
2009,09,24,10,16,16.10
2009,09,24,10,17,16.10
2009,09,24,10,18,16.10
2009,09,24,10,19,16.10
2009,09,24,10,20,16.10
2009,09,24,10,21,16.20
2009,09,24,10,22,16.20
2009,09,24,10,23,16.20
2009,09,24,10,24,16.30
2009,09,24,10,25,16.30
2009,09,24,10,26,16.40
2009,09,24,10,27,16.40
2009,09,24,10,28,16.40
2009,09,24,10,29,16.40
2009,09,24,10,30,16.40
2009,09,24,10,31,16.50
2009,09,24,10,32,16.60
2009,09,24,10,33,16.60
2009,09,24,10,34,16.70
2009,09,24,10,35,16.70
2009,09,24,10,36,16.70
2009,09,24,10,37,16.70
2009,09,24,10,38,16.80
2009,09,24,10,39,16.80
2009,09,24,10,40,16.80
2009,09,24,10,41,16.80
2009,09,24,10,42,16.90
2009,09,24,10,43,16.90
2009,09,24,10,44,17.00
2009,09,24,10,45,17.00
2009,09,24,10,46,17.00
2009,09,24,10,47,17.10
2009,09,24,10,48,17.10
2009,09,24,10,49,17.10
2009,09,24,10,50,17.10
2009,09,24,10,51,17.10
2009,09,24,10,52,17.10
2009,09,24,10,53,17.00
2009,09,24,10,54,17.00
2009,09,24,10,55,16.90
2009,09,24,10,56,16.90
2009,09,24,10,57,16.90
2009,09,24,10,58,16.90
2009,09,24,10,59,17.00
2009,09,24,11,00,17.10
2009,09,24,11,01,17.10
2009,09,24,11,02,17.20
2009,09,24,11,03,17.20
2009,09,24,11,04,17.20
2009,09,24,11,05,17.10
2009,09,24,11,06,17.10
2009,09,24,11,07,17.10
2009,09,24,11,08,17.10
2009,09,24,11,09,17.00
2009,09,24,11,10,17.00
2009,09,24,11,11,17.00
2009,09,24,11,12,17.10
2009,09,24,11,13,17.10
2009,09,24,11,14,17.10
2009,09,24,11,15,17.10
2009,09,24,11,16,17.10
2009,09,24,11,17,17.10
2009,09,24,11,18,17.20
2009,09,24,11,19,17.20
2009,09,24,11,20,17.30
2009,09,24,11,21,17.40
2009,09,24,11,22,17.40
2009,09,24,11,23,17.50
2009,09,24,11,24,17.50
2009,09,24,11,25,17.60
2009,09,24,11,26,17.60
2009,09,24,11,27,17.60
2009,09,24,11,28,17.60
2009,09,24,11,29,17.60
2009,09,24,11,30,17.70
2009,09,24,11,31,17.70
2009,09,24,11,32,17.70
2009,09,24,11,33,17.70
2009,09,24,11,34,17.70
2009,09,24,11,35,17.70
2009,09,24,11,36,17.70
2009,09,24,11,37,17.70
2009,09,24,11,38,17.70
2009,09,24,11,39,17.70
2009,09,24,11,40,17.70
2009,09,24,11,41,17.80
2009,09,24,11,42,17.80
2009,09,24,11,43,17.80
2009,09,24,11,44,17.90
2009,09,24,11,45,17.90
2009,09,24,11,46,17.90
2009,09,24,11,47,17.90
2009,09,24,11,48,17.90
2009,09,24,11,49,17.90
2009,09,24,11,50,17.90
2009,09,24,11,51,17.90
2009,09,24,11,52,17.90
2009,09,24,11,53,17.90
2009,09,24,11,54,17.90
2009,09,24,11,55,17.90
2009,09,24,11,56,18.00
2009,09,24,11,57,18.00
2009,09,24,11,58,18.00
2009,09,24,11,59,18.00
2009,09,24,12,00,18.00
2009,09,24,12,01,18.00
2009,09,24,12,02,18.00
2009,09,24,12,03,18.00
2009,09,24,12,04,18.00
2009,09,24,12,05,18.00
2009,09,24,12,06,18.10
2009,09,24,12,07,18.10
2009,09,24,12,08,18.10
2009,09,24,12,09,18.20
2009,09,24,12,10,18.20
2009,09,24,12,11,18.20
2009,09,24,12,12,18.10
2009,09,24,12,13,18.10
2009,09,24,12,14,18.00
2009,09,24,12,15,18.00
2009,09,24,12,16,18.00
2009,09,24,12,17,18.00
2009,09,24,12,18,18.00
2009,09,24,12,19,18.00
2009,09,24,12,20,18.00
2009,09,24,12,21,17.90
2009,09,24,12,22,17.90
2009,09,24,12,23,17.90
2009,09,24,12,24,17.80
2009,09,24,12,25,17.80
2009,09,24,12,26,17.80
2009,09,24,12,27,17.80
2009,09,24,12,28,17.80
2009,09,24,12,29,17.80
2009,09,24,12,30,17.80
2009,09,24,12,31,17.80
2009,09,24,12,32,17.80
2009,09,24,12,33,17.80
2009,09,24,12,34,17.80
2009,09,24,12,35,17.90
2009,09,24,12,36,17.90
2009,09,24,12,37,17.90
2009,09,24,12,38,17.90
2009,09,24,12,39,17.90
2009,09,24,12,40,17.90
2009,09,24,12,41,17.90
2009,09,24,12,42,17.90
2009,09,24,12,43,17.90
2009,09,24,12,44,17.90
2009,09,24,12,45,17.80
2009,09,24,12,46,17.80
2009,09,24,12,47,17.70
2009,09,24,12,48,17.70
2009,09,24,12,49,17.70
2009,09,24,12,50,17.70
2009,09,24,12,51,17.70
2009,09,24,12,52,17.70
2009,09,24,12,53,17.70
2009,09,24,12,54,17.70
2009,09,24,12,55,17.80
2009,09,24,12,56,17.90
2009,09,24,12,57,18.00
2009,09,24,12,58,18.10
2009,09,24,12,59,18.10
2009,09,24,13,00,18.20
2009,09,24,13,01,18.30
2009,09,24,13,02,18.30
2009,09,24,13,03,18.40
2009,09,24,13,04,18.40
2009,09,24,13,05,18.30
2009,09,24,13,06,18.30
2009,09,24,13,07,18.30
2009,09,24,13,08,18.30
2009,09,24,13,09,18.40
2009,09,24,13,10,18.40
2009,09,24,13,11,18.50
2009,09,24,13,12,18.50
2009,09,24,13,13,18.50
2009,09,24,13,14,18.40
2009,09,24,13,15,18.40
2009,09,24,13,16,18.40
2009,09,24,13,17,18.30
2009,09,24,13,18,18.30
2009,09,24,13,19,18.30
2009,09,24,13,20,18.30
2009,09,24,13,21,18.30
2009,09,24,13,22,18.30
2009,09,24,13,23,18.30
2009,09,24,13,24,18.30
2009,09,24,13,25,18.30
2009,09,24,13,26,18.30
2009,09,24,13,27,18.30
2009,09,24,13,28,18.30
2009,09,24,13,29,18.30
2009,09,24,13,30,18.20
2009,09,24,13,31,18.20
2009,09,24,13,32,18.20
2009,09,24,13,33,18.20
2009,09,24,13,34,18.20
2009,09,24,13,35,18.10
2009,09,24,13,36,18.00
2009,09,24,13,37,17.90
2009,09,24,13,38,17.90
2009,09,24,13,39,17.80
2009,09,24,13,40,17.80
2009,09,24,13,41,17.90
2009,09,24,13,42,17.90
2009,09,24,13,43,17.90
2009,09,24,13,44,17.90
2009,09,24,13,45,17.90
2009,09,24,13,46,17.90
2009,09,24,13,47,17.90
2009,09,24,13,48,17.90
2009,09,24,13,49,17.90
2009,09,24,13,50,17.90
2009,09,24,13,51,17.90
2009,09,24,13,52,17.90
2009,09,24,13,53,17.90
2009,09,24,13,54,18.00
2009,09,24,13,55,18.00
2009,09,24,13,56,18.10
2009,09,24,13,57,18.10
2009,09,24,13,58,18.20
2009,09,24,13,59,18.20
2009,09,24,14,00,18.30
2009,09,24,14,01,18.30
2009,09,24,14,02,18.40
2009,09,24,14,03,18.40
2009,09,24,14,04,18.40
2009,09,24,14,05,18.40
2009,09,24,14,06,18.40
2009,09,24,14,07,18.40
2009,09,24,14,08,18.40
2009,09,24,14,09,18.40
2009,09,24,14,10,18.40
2009,09,24,14,11,18.40
2009,09,24,14,12,18.40
2009,09,24,14,13,18.40
2009,09,24,14,14,18.30
2009,09,24,14,15,18.30
2009,09,24,14,16,18.30
2009,09,24,14,17,18.30
2009,09,24,14,18,18.30
2009,09,24,14,19,18.30
2009,09,24,14,20,18.30
2009,09,24,14,21,18.30
2009,09,24,14,22,18.30
2009,09,24,14,23,18.30
2009,09,24,14,24,18.30
2009,09,24,14,25,18.30
2009,09,24,14,26,18.30
2009,09,24,14,27,18.30
2009,09,24,14,28,18.30
2009,09,24,14,29,18.30
2009,09,24,14,30,18.30
2009,09,24,14,31,18.30
2009,09,24,14,32,18.20
2009,09,24,14,33,18.20
2009,09,24,14,34,18.30
2009,09,24,14,35,18.30
2009,09,24,14,36,18.30
2009,09,24,14,37,18.30
2009,09,24,14,38,18.30
2009,09,24,14,39,18.30
2009,09,24,14,40,18.40
2009,09,24,14,41,18.40
2009,09,24,14,42,18.40
2009,09,24,14,43,18.50
2009,09,24,14,44,18.50
2009,09,24,14,45,18.40
2009,09,24,14,46,18.40
2009,09,24,14,47,18.40
2009,09,24,14,48,18.40
2009,09,24,14,49,18.50
2009,09,24,14,50,18.50
2009,09,24,14,51,18.60
2009,09,24,14,52,18.60
2009,09,24,14,53,18.60
2009,09,24,14,54,18.70
2009,09,24,14,55,18.70
2009,09,24,14,56,18.70
2009,09,24,14,57,18.60
2009,09,24,14,58,18.60
2009,09,24,14,59,18.60
2009,09,24,15,00,18.60
2009,09,24,15,01,18.50
2009,09,24,15,02,18.50
2009,09,24,15,03,18.50
2009,09,24,15,04,18.50
2009,09,24,15,05,18.50
2009,09,24,15,06,18.60
2009,09,24,15,07,18.60
2009,09,24,15,08,18.60
2009,09,24,15,09,18.60
2009,09,24,15,10,18.60
2009,09,24,15,11,18.60
2009,09,24,15,12,18.50
2009,09,24,15,13,18.50
2009,09,24,15,14,18.50
2009,09,24,15,15,18.50
2009,09,24,15,16,18.40
2009,09,24,15,17,18.40
2009,09,24,15,18,18.40
2009,09,24,15,19,18.40
2009,09,24,15,20,18.40
2009,09,24,15,21,18.40
2009,09,24,15,22,18.50
2009,09,24,15,23,18.50
2009,09,24,15,24,18.50
2009,09,24,15,25,18.60
2009,09,24,15,26,18.70
2009,09,24,15,27,18.70
2009,09,24,15,28,18.70
2009,09,24,15,29,18.70
2009,09,24,15,30,18.70
2009,09,24,15,31,18.70
2009,09,24,15,32,18.70
2009,09,24,15,33,18.70
2009,09,24,15,34,18.70
2009,09,24,15,35,18.70
2009,09,24,15,36,18.70
2009,09,24,15,37,18.70
2009,09,24,15,38,18.70
2009,09,24,15,39,18.60
2009,09,24,15,40,18.60
2009,09,24,15,41,18.60
2009,09,24,15,42,18.60
2009,09,24,15,43,18.60
2009,09,24,15,44,18.60
2009,09,24,15,45,18.60
2009,09,24,15,46,18.70
2009,09,24,15,47,18.60
2009,09,24,15,48,18.60
2009,09,24,15,49,18.60
2009,09,24,15,50,18.60
2009,09,24,15,51,18.60
2009,09,24,15,52,18.60
2009,09,24,15,53,18.50
2009,09,24,15,54,18.50
2009,09,24,15,55,18.50
2009,09,24,15,56,18.50
2009,09,24,15,57,18.60
2009,09,24,15,58,18.50
2009,09,24,15,59,18.50
2009,09,24,16,00,18.50
2009,09,24,16,01,18.50
2009,09,24,16,02,18.40
2009,09,24,16,03,18.40
2009,09,24,16,04,18.40
2009,09,24,16,05,18.40
2009,09,24,16,06,18.40
2009,09,24,16,07,18.40
2009,09,24,16,08,18.40
2009,09,24,16,09,18.40
2009,09,24,16,10,18.40
2009,09,24,16,11,18.40
2009,09,24,16,12,18.40
2009,09,24,16,13,18.50
2009,09,24,16,14,18.60
2009,09,24,16,15,18.60
2009,09,24,16,16,18.70
2009,09,24,16,17,18.70
2009,09,24,16,18,18.80
2009,09,24,16,19,18.80
2009,09,24,16,20,18.80
2009,09,24,16,21,18.80
2009,09,24,16,22,18.80
2009,09,24,16,23,18.80
2009,09,24,16,24,18.80
2009,09,24,16,25,18.80
2009,09,24,16,26,18.80
2009,09,24,16,27,18.80
2009,09,24,16,28,18.80
2009,09,24,16,29,18.90
2009,09,24,16,30,18.90
2009,09,24,16,31,18.90
2009,09,24,16,32,19.00
2009,09,24,16,33,18.90
2009,09,24,16,34,18.90
2009,09,24,16,35,18.90
2009,09,24,16,36,18.90
2009,09,24,16,37,18.80
2009,09,24,16,38,18.80
2009,09,24,16,39,18.80
2009,09,24,16,40,18.80
2009,09,24,16,41,18.80
2009,09,24,16,42,18.80
2009,09,24,16,43,18.80
2009,09,24,16,44,18.80
2009,09,24,16,45,18.80
2009,09,24,16,46,18.80
2009,09,24,16,47,18.80
2009,09,24,16,48,18.70
2009,09,24,16,49,18.70
2009,09,24,16,50,18.60
2009,09,24,16,51,18.60
2009,09,24,16,52,18.60
2009,09,24,16,53,18.60
2009,09,24,16,54,18.60
2009,09,24,16,55,18.60
2009,09,24,16,56,18.70
2009,09,24,16,57,18.70
2009,09,24,16,58,18.70
2009,09,24,16,59,18.70
2009,09,24,17,00,18.60
2009,09,24,17,01,18.60
2009,09,24,17,02,18.60
2009,09,24,17,03,18.60
2009,09,24,17,04,18.50
2009,09,24,17,05,18.50
2009,09,24,17,06,18.40
2009,09,24,17,07,18.50
2009,09,24,17,08,18.50
2009,09,24,17,09,18.50
2009,09,24,17,10,18.50
2009,09,24,17,11,18.50
2009,09,24,17,12,18.50
2009,09,24,17,13,18.50
2009,09,24,17,14,18.50
2009,09,24,17,15,18.50
2009,09,24,17,16,18.50
2009,09,24,17,17,18.50
2009,09,24,17,18,18.50
2009,09,24,17,19,18.40
2009,09,24,17,20,18.40
2009,09,24,17,21,18.40
2009,09,24,17,22,18.40
2009,09,24,17,23,18.40
2009,09,24,17,24,18.40
2009,09,24,17,25,18.40
2009,09,24,17,26,18.40
2009,09,24,17,27,18.40
2009,09,24,17,28,18.30
2009,09,24,17,29,18.20
2009,09,24,17,30,18.20
2009,09,24,17,31,18.10
2009,09,24,17,32,18.10
2009,09,24,17,33,18.00
2009,09,24,17,34,18.00
2009,09,24,17,35,17.90
2009,09,24,17,36,17.90
2009,09,24,17,37,17.80
2009,09,24,17,38,17.80
2009,09,24,17,39,17.80
2009,09,24,17,40,17.80
2009,09,24,17,41,17.70
2009,09,24,17,42,17.70
2009,09,24,17,43,17.70
2009,09,24,17,44,17.70
2009,09,24,17,45,17.70
2009,09,24,17,46,17.70
2009,09,24,17,47,17.70
2009,09,24,17,48,17.70
2009,09,24,17,49,17.70
2009,09,24,17,50,17.60